Home > Weather > Lafayette > Past weeks

Flag for U.S.A. Weather for the Past 2 Weeks in Lafayette, Louisiana, U.S.A.

Now
46 °F

Clear.


Feels Like: 42 °F
Forecast: 35 / 60 °F
Wind: 7 mph from Northwest

Location: Lafayette Regional Airport

Current Time: Feb 6, 2016 at 8:49:18 PM

Latest Report: Feb 6, 2016 at 7:53 PM


Visibility: 10 mi

Pressure: 30.32 "Hg

Humidity: 66%

Dew point: 35 °F

Location of LafayetteLocation

Historic Weather in Lafayette — Graph

°F

Lafayette Temperature Yesterday

Maximum temperature yesterday: 56 °F (at 3:53 PM)
Minimum temperature yesterday: 34 °F (at 6:53 AM)
Average temperature yesterday: 45 °F

High & Low Weather Summary for the Past Weeks

 TemperatureHumidityPressure
High75 °F (Jan 31, 12:53 PM)100% (Jan 29, 7:53 AM)30.53 "Hg (Jan 29, 7:53 AM)
Low32 °F (Jan 23, 5:53 AM)24% (Feb 5, 3:53 PM)29.68 "Hg (Feb 2, 3:04 PM)
Average53 °F69%30.11 "Hg
* Reported Jan 22 6:53 PM — Feb 6 6:53 PM, Lafayette, Weather by CustomWeather, © 2016

Note: Actual official high and low records may vary slightly from our data, if they occured in-between our weather recording intervals... More about our weather records

Advertising

Lafayette Weather History for the Previous 24 Hours

 ConditionsComfort  
Time TempWeatherWind HumidityBarometerVisibility
6:53 PM
Sat, Feb 6
48 °FClear.7 mph52%30.30 "Hg10 mi
5:53 PM52 °FPassing clouds.7 mph37%30.29 "Hg10 mi
4:53 PM55 °FMostly cloudy.No wind31%30.28 "Hg10 mi
3:53 PM56 °FPartly sunny.5 mph30%30.26 "Hg10 mi
2:53 PM54 °FPartly sunny.3 mph34%30.25 "Hg10 mi
1:53 PM55 °FPartly sunny.7 mph33%30.25 "Hg10 mi
12:53 PM53 °FMostly cloudy.3 mph35%30.29 "Hg10 mi
11:53 AM53 °FMostly cloudy.3 mph31%30.33 "Hg10 mi
10:53 AM53 °FPassing clouds.No wind35%30.36 "Hg10 mi
9:53 AM53 °FSunny.3 mph39%30.36 "Hg10 mi
8:53 AM48 °FScattered clouds.3 mph63%30.34 "Hg10 mi
7:53 AM43 °FScattered clouds.No wind74%30.34 "Hg10 mi
6:53 AM41 °FPassing clouds.3 mph76%30.33 "Hg10 mi
5:53 AM42 °FPassing clouds.No wind73%30.31 "Hg10 mi
4:53 AM41 °FClear.3 mph80%30.30 "Hg10 mi
3:53 AM37 °FFog.3 mph93%30.34 "Hg4 mi
2:53 AM38 °FClear.No wind86%30.36 "Hg10 mi
1:53 AM39 °FClear.No wind76%30.37 "Hg10 mi
12:53 AM39 °FClear.No wind65%30.38 "Hg10 mi
11:53 PM
Fri, Feb 5
40 °FClear.No wind63%30.39 "Hg10 mi
10:53 PM41 °FClear.No wind58%30.40 "Hg10 mi
9:53 PM43 °FClear.No wind56%30.39 "Hg10 mi
8:53 PM45 °FClear.No wind49%30.39 "Hg10 mi
Weather by CustomWeather, © 2016

See weather overviewHow to use our weather pages